Total_Precipitation_Accumulation
0.00 0.01 0.06 0.20 0.69 0.91 0.80 0.49 0.40 0.32 0.32 0.27 0.29 0.28 0.33 0.46 0.65 0.87 0.41 0.11 0.03 0.01 0.02 0.09 0.15 0.15 0.11 0.10 0.11 0.15 0.15 0.16 0.15 0.14 0.14 0.13 0.10 0.08 0.06 0.06 0.06 0.06 0.06 0.06 0.07 0.08 0.07 0.09 0.13
0.01 0.02 0.08 0.33 0.68 0.76 0.58 0.42 0.35 0.25 0.27 0.32 0.45 0.44 0.35 0.42 0.43 0.36 0.23 0.13 0.05 0.02 0.02 0.04 0.10 0.13 0.12 0.12 0.12 0.14 0.14 0.12 0.12 0.11 0.11 0.11 0.09 0.06 0.06 0.07 0.08 0.08 0.08 0.08 0.08 0.09 0.09 0.10 0.12
0.02 0.05 0.12 0.36 0.48 0.38 0.30 0.20 0.21 0.26 0.35 0.44 0.49 0.50 0.50 0.48 0.38 0.32 0.23 0.15 0.12 0.06 0.04 0.05 0.08 0.10 0.12 0.14 0.13 0.13 0.13 0.12 0.11 0.10 0.10 0.09 0.08 0.07 0.07 0.08 0.09 0.10 0.11 0.12 0.09 0.10 0.12 0.12 0.13
0.03 0.08 0.18 0.27 0.19 0.10 0.10 0.12 0.19 0.32 0.51 0.74 0.73 0.63 0.58 0.40 0.31 0.25 0.29 0.22 0.18 0.11 0.06 0.07 0.10 0.10 0.11 0.12 0.13 0.13 0.12 0.12 0.12 0.11 0.11 0.10 0.09 0.10 0.09 0.09 0.10 0.12 0.14 0.14 0.13 0.14 0.14 0.12 0.13
0.02 0.08 0.19 0.18 0.08 0.06 0.07 0.13 0.23 0.37 0.55 0.73 0.78 0.76 0.73 0.47 0.33 0.30 0.26 0.23 0.22 0.16 0.08 0.08 0.14 0.13 0.13 0.14 0.15 0.15 0.13 0.12 0.12 0.12 0.13 0.13 0.12 0.12 0.12 0.11 0.12 0.12 0.14 0.14 0.16 0.17 0.15 0.13 0.14
0.01 0.04 0.09 0.09 0.05 0.05 0.08 0.15 0.24 0.36 0.54 0.71 0.95 1.01 0.85 0.61 0.55 0.45 0.32 0.29 0.28 0.24 0.14 0.14 0.19 0.20 0.19 0.19 0.20 0.19 0.16 0.14 0.14 0.15 0.16 0.15 0.14 0.15 0.15 0.16 0.16 0.15 0.16 0.17 0.17 0.17 0.17 0.16 0.17
0.00 0.01 0.04 0.06 0.05 0.05 0.08 0.14 0.24 0.38 0.53 0.80 1.09 1.17 0.90 0.68 0.60 0.57 0.50 0.46 0.55 0.46 0.32 0.25 0.23 0.21 0.21 0.25 0.26 0.25 0.21 0.19 0.18 0.19 0.18 0.17 0.16 0.17 0.18 0.21 0.23 0.23 0.22 0.21 0.21 0.21 0.23 0.24 0.24
0.00 0.01 0.03 0.04 0.03 0.05 0.10 0.15 0.28 0.47 0.65 0.87 1.06 1.18 1.17 0.74 0.61 0.70 0.80 0.85 1.02 0.94 0.70 0.49 0.33 0.32 0.26 0.25 0.27 0.28 0.25 0.23 0.22 0.22 0.21 0.22 0.26 0.31 0.36 0.35 0.34 0.34 0.35 0.36 0.38 0.38 0.39 0.42 0.41
0.00 0.01 0.02 0.01 0.02 0.10 0.14 0.17 0.24 0.34 0.53 0.76 0.92 0.99 0.88 0.74 0.83 1.03 1.22 1.02 1.00 1.09 0.90 0.78 0.60 0.41 0.38 0.36 0.33 0.41 0.40 0.41 0.43 0.47 0.45 0.44 0.49 0.63 0.75 0.65 0.64 0.66 0.67 0.71 0.77 0.80 0.81 0.77 0.64
0.00 0.00 0.01 0.00 0.01 0.05 0.11 0.16 0.25 0.34 0.70 1.26 1.29 0.94 0.71 0.85 1.05 1.21 1.34 1.20 1.13 1.13 0.91 0.87 0.85 0.63 0.56 0.52 0.69 0.88 0.81 0.88 0.84 0.96 0.88 0.93 0.97 0.85 0.69 0.79 0.93 1.04 1.23 1.30 1.39 1.44 1.41 1.27 1.06
0.00 0.00 0.00 0.00 0.01 0.01 0.04 0.11 0.20 0.41 0.82 1.46 1.64 1.23 1.03 1.11 1.41 1.38 1.44 1.54 1.58 1.34 1.16 0.89 0.99 0.87 0.85 0.91 1.02 1.15 1.20 1.21 1.17 1.22 1.24 1.36 1.33 1.13 1.02 1.17 1.44 1.59 1.74 1.83 2.07 2.07 1.71 1.70 1.75
0.00 0.00 0.00 0.00 0.01 0.01 0.09 0.15 0.25 0.32 0.74 1.07 1.04 0.95 1.10 1.28 1.54 1.66 1.62 1.79 1.77 1.57 1.48 1.33 1.33 1.28 1.20 1.19 1.17 1.14 1.05 1.07 1.16 1.27 1.36 1.52 1.52 1.54 1.51 1.56 1.64 1.78 2.00 2.25 2.33 2.34 2.21 2.35 2.31
0.00 0.00 0.00 0.02 0.03 0.04 0.10 0.13 0.24 0.38 0.51 0.63 0.60 0.78 1.21 1.47 1.79 2.04 2.30 2.41 2.35 2.27 2.11 2.01 2.00 1.76 1.49 1.31 1.15 1.01 0.93 0.87 0.96 1.06 1.12 1.22 1.46 1.62 1.62 1.46 1.46 1.49 1.74 2.08 2.39 2.44 2.67 2.76 2.55
0.00 0.00 0.01 0.03 0.03 0.05 0.07 0.10 0.26 0.43 0.47 0.59 0.74 0.97 1.34 1.78 2.14 2.33 2.97 3.25 3.34 3.33 3.07 2.75 2.64 2.17 1.83 1.60 1.26 1.09 0.89 0.89 0.90 0.86 0.92 1.10 1.25 1.42 1.39 1.37 1.42 1.47 1.49 1.65 2.04 2.29 2.51 2.46 2.25
0.00 0.02 0.05 0.06 0.04 0.05 0.06 0.17 0.39 0.52 0.70 0.74 0.92 1.15 1.47 2.02 2.46 2.87 3.34 3.92 4.25 4.38 3.97 3.29 2.92 2.55 2.18 1.92 1.51 1.20 1.02 0.90 0.89 0.82 0.83 0.91 0.99 1.12 1.14 1.15 1.15 1.21 1.24 1.26 1.42 1.65 1.81 1.78 1.71
0.01 0.08 0.17 0.11 0.07 0.07 0.11 0.42 0.64 0.55 0.84 1.17 1.10 1.39 1.78 2.26 2.66 3.28 3.91 4.61 5.09 5.20 4.56 3.77 3.08 3.01 2.72 2.32 1.73 1.29 1.03 0.87 0.74 0.69 0.64 0.64 0.67 0.69 0.71 0.72 0.71 0.73 0.74 0.80 0.91 1.03 1.14 1.26 1.42
0.03 0.07 0.15 0.18 0.11 0.10 0.18 0.58 0.75 0.54 0.67 0.98 1.21 1.47 1.89 2.22 2.50 3.05 3.64 4.40 5.00 5.49 5.20 4.43 4.12 3.82 3.09 2.24 1.59 1.19 0.90 0.74 0.62 0.60 0.53 0.50 0.49 0.48 0.51 0.51 0.52 0.47 0.46 0.50 0.52 0.64 0.75 0.87 0.98
0.02 0.04 0.10 0.21 0.17 0.17 0.25 0.44 0.71 0.73 0.88 1.11 1.25 1.40 1.68 1.82 2.02 2.49 3.01 3.43 3.99 4.47 4.32 4.08 4.00 3.40 2.68 1.91 1.43 1.07 0.83 0.67 0.53 0.47 0.46 0.42 0.40 0.40 0.45 0.42 0.39 0.34 0.34 0.39 0.44 0.52 0.53 0.55 0.61
0.02 0.04 0.08 0.15 0.16 0.23 0.36 0.47 0.66 0.82 1.04 1.20 1.22 1.21 1.26 1.37 1.63 1.89 2.23 2.60 2.82 2.96 3.00 3.12 3.09 2.66 2.07 1.57 1.11 0.84 0.72 0.60 0.45 0.34 0.34 0.36 0.35 0.37 0.44 0.36 0.37 0.34 0.30 0.31 0.34 0.38 0.38 0.36 0.35
0.03 0.06 0.11 0.14 0.14 0.19 0.34 0.61 0.76 0.84 0.86 0.93 1.04 1.00 0.98 1.07 1.17 1.29 1.49 1.79 1.88 2.06 2.28 2.42 2.38 2.05 1.52 1.25 0.99 0.85 0.75 0.61 0.47 0.35 0.31 0.28 0.27 0.29 0.34 0.40 0.31 0.31 0.31 0.31 0.30 0.33 0.31 0.27 0.28
0.04 0.05 0.06 0.10 0.11 0.19 0.35 0.85 0.93 0.83 0.74 0.64 0.76 0.79 0.74 0.75 0.77 0.80 0.90 1.09 1.37 1.77 1.84 1.74 1.74 1.62 1.32 1.16 0.99 0.88 0.80 0.67 0.53 0.41 0.32 0.25 0.22 0.23 0.26 0.29 0.30 0.33 0.28 0.31 0.36 0.34 0.32 0.25 0.22
0.04 0.03 0.02 0.02 0.07 0.30 0.42 0.86 0.95 0.81 0.80 0.61 0.57 0.56 0.45 0.39 0.44 0.55 0.61 0.72 0.94 1.20 1.40 1.52 1.52 1.46 1.21 1.01 0.82 0.67 0.55 0.45 0.37 0.32 0.31 0.26 0.24 0.20 0.18 0.17 0.21 0.28 0.29 0.36 0.28 0.31 0.34 0.30 0.23
0.01 0.01 0.01 0.03 0.10 0.27 0.40 0.73 0.94 0.76 0.84 0.59 0.38 0.26 0.18 0.16 0.21 0.34 0.44 0.53 0.63 0.79 1.06 1.27 1.45 1.53 1.23 0.96 0.78 0.67 0.57 0.47 0.40 0.34 0.34 0.28 0.27 0.25 0.21 0.19 0.18 0.19 0.23 0.29 0.31 0.37 0.35 0.35 0.30
0.01 0.02 0.08 0.17 0.29 0.61 0.60 0.59 0.88 0.66 0.45 0.27 0.18 0.11 0.09 0.09 0.13 0.22 0.28 0.38 0.52 0.63 0.77 0.92 1.12 1.31 1.21 0.99 0.80 0.70 0.64 0.56 0.47 0.36 0.31 0.30 0.32 0.33 0.31 0.28 0.28 0.27 0.24 0.21 0.22 0.26 0.33 0.38 0.39
0.02 0.03 0.16 0.37 0.63 0.82 0.49 0.62 0.96 0.52 0.31 0.18 0.12 0.09 0.06 0.06 0.08 0.12 0.17 0.22 0.37 0.46 0.49 0.55 0.74 0.90 0.91 0.85 0.77 0.71 0.74 0.71 0.62 0.49 0.40 0.36 0.33 0.34 0.34 0.32 0.32 0.34 0.33 0.29 0.23 0.19 0.23 0.31 0.36
0.02 0.02 0.06 0.12 0.24 0.40 0.47 1.07 0.89 0.32 0.19 0.16 0.11 0.09 0.07 0.07 0.06 0.06 0.09 0.16 0.23 0.29 0.34 0.38 0.51 0.64 0.71 0.67 0.67 0.64 0.61 0.56 0.58 0.60 0.50 0.44 0.42 0.38 0.34 0.32 0.30 0.32 0.35 0.36 0.32 0.26 0.24 0.25 0.29
0.02 0.02 0.03 0.04 0.06 0.24 0.57 0.76 0.46 0.18 0.15 0.16 0.12 0.09 0.08 0.10 0.08 0.06 0.07 0.12 0.15 0.19 0.23 0.27 0.38 0.48 0.53 0.54 0.55 0.53 0.52 0.47 0.46 0.43 0.38 0.35 0.44 0.44 0.38 0.33 0.30 0.31 0.33 0.36 0.37 0.35 0.33 0.30 0.27
0.03 0.02 0.02 0.02 0.05 0.17 0.42 0.65 0.64 0.35 0.25 0.21 0.16 0.10 0.08 0.08 0.08 0.09 0.10 0.11 0.13 0.17 0.22 0.25 0.31 0.39 0.43 0.47 0.46 0.46 0.52 0.52 0.53 0.46 0.40 0.33 0.32 0.34 0.37 0.36 0.31 0.29 0.31 0.36 0.40 0.43 0.47 0.48 0.43
0.04 0.03 0.03 0.03 0.04 0.09 0.27 0.40 0.41 0.30 0.27 0.20 0.15 0.13 0.11 0.09 0.07 0.09 0.10 0.09 0.11 0.15 0.19 0.19 0.28 0.35 0.39 0.45 0.47 0.49 0.50 0.50 0.52 0.54 0.50 0.41 0.36 0.34 0.33 0.33 0.30 0.27 0.26 0.30 0.35 0.38 0.48 0.60 0.68
0.05 0.06 0.06 0.05 0.05 0.06 0.11 0.19 0.20 0.20 0.24 0.23 0.19 0.18 0.14 0.10 0.07 0.09 0.10 0.09 0.08 0.12 0.16 0.17 0.21 0.25 0.28 0.37 0.47 0.47 0.49 0.55 0.52 0.48 0.53 0.52 0.49 0.48 0.45 0.40 0.36 0.32 0.27 0.28 0.31 0.33 0.38 0.50 0.67